sat.trackr.live / text

‹ back to catalog

STARLINK-3400

NORAD 51128 · 2022-005AA

PAYLOAD ACTIVE UNKNOWN

§ Identity

Operator
Country
US
Launch date
2022-01-19
Launch site
AFETR
Launch vehicle
Mass (kg)
RCS (m²)

Purposes: comms

External: N2YO · Heavens-Above · Gunter

§ Orbital elements

Epoch: 2026-09-20T03:37:02.121600Z

Period
93.79 min
Inclination
53.1611°
Eccentricity
0.0001204
Mean motion
15.35404269 rev/d
Perigee alt
458.9 km
Apogee alt
460.5 km
Semi-major
6,837.9 km
B*
-7.7790e-6
RAAN
139.9019°
Arg perigee
84.2319°
Mean anomaly
275.8822°
Rev number
25,816

§ Raw data

STARLINK-34001 51128U 22005AA  26263.15071900 -.00000652  00000+0 -77790-5 0  99972 51128  53.1611 139.9019 0001204  84.2319 275.8822 15.35404269258167

JSON: /api/v1/satellites/51128 · /tle

For live sub-satellite position, see the globe view (requires WebGL).

§ Visibility from observer

Set your observer location to see the next 7 days of passes ≥ 10°. The values pass through the URL so the page stays shareable.

No JS? Fill the form by hand. The geolocation button needs JavaScript.